Theta_e
325 324 324 323 323 324 324 326 328 330 330 329 329 329 329 330 330 329 329 329 329 329 329 328 328 328 329 329 328 327 327 326 326 326 326 326 326 325 324 323 323 323 324 324 323 322 320 318 317 316 316 317 318 320 321 323 325 326 328 328 328 328 328 328 327 327 327 327 326 325 324 324 323 323 323 323 323 322 321 320 318 316 314 310 307 305
326 325 324 324 324 324 325 326 328 329 330 329 328 328 329 330 330 330 330 330 329 328 328 328 328 329 329 329 329 328 327 326 325 325 325 325 325 324 324 324 324 324 325 325 324 322 320 318 317 317 316 317 319 321 323 324 326 328 329 329 329 329 330 329 329 329 328 327 326 325 324 323 323 322 323 323 323 322 321 320 319 317 315 312 309 307
327 326 326 326 326 326 327 327 328 329 329 329 329 329 329 329 330 330 331 330 328 328 328 328 328 328 329 329 329 328 327 326 325 325 325 325 324 324 324 324 324 325 326 326 325 323 321 320 319 318 318 319 321 323 325 326 328 329 329 329 329 329 330 330 330 330 329 328 326 325 324 323 322 322 323 323 323 322 321 320 319 318 316 313 310 308
326 327 327 327 327 328 328 328 328 328 329 329 329 329 328 328 328 329 330 329 328 328 328 328 328 328 328 328 328 328 327 326 325 325 324 324 324 324 324 324 325 325 326 326 325 324 323 322 322 321 320 321 323 325 326 328 328 328 328 329 329 329 329 329 330 329 329 327 326 324 323 323 323 323 324 324 323 322 321 320 319 318 317 315 312 309
326 326 326 327 327 327 327 328 328 328 329 328 328 327 326 326 327 327 328 329 329 329 329 329 328 328 327 327 327 327 327 327 326 326 325 324 324 324 324 324 324 325 325 325 325 325 324 324 323 323 322 323 324 325 327 327 327 327 328 328 329 329 329 329 329 329 328 327 325 324 323 323 324 325 325 324 323 322 321 320 319 318 317 315 312 310
326 326 326 326 326 327 327 327 328 328 328 327 326 325 324 324 324 325 326 327 328 328 328 328 328 328 328 327 326 326 326 327 327 327 326 326 325 325 325 324 324 324 324 324 324 323 323 323 323 323 323 324 324 325 326 326 326 327 327 327 328 329 329 329 329 328 328 327 326 325 325 325 326 326 325 324 322 321 320 319 319 318 316 314 312 310
326 326 326 325 325 326 326 327 328 328 328 327 325 323 323 322 322 322 323 324 325 326 327 328 328 328 328 328 327 326 326 326 327 328 328 327 327 326 326 325 325 324 324 324 324 323 322 322 322 322 322 323 323 324 324 325 325 326 326 327 328 329 329 329 329 328 328 327 327 326 326 327 327 326 325 323 322 321 320 319 318 317 316 314 311 310
326 326 326 326 325 325 325 326 327 327 328 327 325 324 323 323 323 322 322 322 323 324 326 327 327 328 328 328 327 327 326 326 327 328 329 329 328 328 327 327 326 325 325 325 325 324 323 323 323 322 322 322 322 322 323 323 324 324 325 326 328 329 329 329 329 329 328 328 328 327 327 327 326 325 324 323 322 321 320 319 318 317 315 313 311 309
326 326 326 326 326 326 326 325 326 326 326 326 326 325 325 324 324 323 322 322 322 322 324 325 327 327 328 328 327 327 327 327 327 327 328 329 328 328 328 328 327 326 326 326 326 325 325 324 324 324 323 323 323 323 323 323 323 324 325 326 327 328 329 329 329 328 328 328 328 328 328 327 325 324 323 322 321 320 320 319 318 316 314 312 310 309
325 325 326 326 326 326 326 326 326 326 326 325 325 325 325 325 325 324 324 323 322 322 322 324 325 326 327 327 327 327 327 326 326 327 327 328 328 329 328 328 327 327 327 327 327 326 326 326 325 325 324 324 324 324 324 324 324 324 325 326 327 328 328 329 329 328 328 328 328 328 327 326 324 323 322 321 321 320 319 318 317 315 313 311 309 307
325 325 325 326 326 326 326 326 326 326 326 325 324 324 324 324 324 325 324 323 322 322 322 323 324 325 326 326 326 326 326 326 326 326 326 327 328 328 328 328 327 327 327 327 327 327 327 326 326 326 325 325 325 325 325 325 325 325 325 325 326 327 328 328 328 328 328 328 328 328 327 325 323 322 321 321 320 319 318 317 315 313 311 309 307 306
325 325 325 325 326 325 325 325 326 326 325 324 323 322 322 323 323 324 324 324 323 322 322 323 324 325 326 326 326 326 326 325 325 325 326 326 327 327 328 327 327 327 327 328 328 328 328 327 327 326 326 326 325 325 325 325 325 325 325 326 326 327 328 329 329 328 328 328 328 328 326 325 323 322 321 320 320 318 317 316 314 311 309 307 305 304
324 324 324 325 325 325 325 324 324 323 323 323 322 321 321 322 322 323 323 323 322 322 322 323 324 325 325 326 326 326 326 325 325 325 325 325 326 326 327 327 327 327 327 327 328 328 328 328 327 327 326 326 326 326 326 326 326 326 326 326 327 327 328 328 328 328 328 328 327 327 325 324 322 321 320 320 318 317 315 314 311 309 307 306 306 306
323 323 323 324 324 324 324 323 323 322 322 322 322 323 323 322 322 322 322 322 322 322 322 324 325 325 325 325 325 325 326 326 326 326 326 326 326 326 326 327 327 327 327 327 328 328 328 328 327 327 326 326 326 326 326 326 327 327 327 327 327 328 328 328 328 328 327 327 326 325 324 323 322 321 320 319 317 315 314 312 310 309 309 309 309 310
321 322 322 322 322 323 323 323 323 323 323 323 323 323 323 323 323 322 322 322 321 322 323 324 325 325 325 325 325 325 325 325 326 326 326 326 327 327 327 327 327 327 327 327 327 327 328 328 328 327 326 326 326 326 326 327 327 327 327 327 328 328 328 328 327 327 327 326 325 324 323 322 321 320 319 318 317 315 313 311 311 312 313 313 313 312
320 321 321 322 322 323 323 323 323 323 323 323 323 323 323 322 322 322 322 322 322 322 323 324 324 324 324 324 324 323 323 324 324 325 326 326 326 327 327 327 327 327 326 326 327 327 327 328 328 327 327 326 326 326 327 327 327 327 328 328 328 328 327 327 327 326 326 325 324 323 323 322 322 321 320 318 316 314 312 313 314 315 316 315 315 313
319 319 320 320 321 322 322 323 323 323 323 323 323 322 322 322 322 322 322 322 322 323 323 323 323 323 324 323 323 322 322 323 323 323 324 325 326 326 326 326 326 326 326 326 326 326 326 327 327 328 327 327 327 327 327 327 328 328 327 327 327 327 327 326 325 325 324 324 324 324 323 323 323 322 320 317 315 313 314 315 316 316 316 316 315 314
318 318 319 319 320 320 321 322 322 323 323 323 322 322 322 322 322 322 322 321 322 322 322 323 322 322 322 323 322 322 322 322 322 322 323 324 324 325 326 326 326 326 325 325 325 325 325 326 327 327 327 327 327 327 327 327 327 326 326 326 325 325 325 324 324 324 324 324 324 324 324 324 322 320 317 315 314 314 315 316 316 316 316 315 315 314
317 317 318 318 319 319 320 320 321 321 322 322 322 322 322 321 321 321 321 321 321 321 321 321 322 321 321 321 321 321 321 321 322 322 322 322 323 324 325 325 325 325 325 325 324 325 325 326 326 327 327 327 327 327 327 326 326 325 324 323 323 323 323 323 323 323 324 324 324 324 324 323 320 318 315 314 315 316 316 316 316 316 315 315 314 314
317 317 317 317 318 318 319 319 320 321 321 322 322 322 322 321 321 321 321 321 321 321 321 321 321 321 321 321 321 321 321 321 321 321 322 322 322 323 324 324 325 325 324 324 324 324 325 326 326 327 326 326 326 326 326 325 324 323 322 322 322 322 322 322 323 324 324 325 325 324 322 320 318 316 315 315 316 316 316 316 315 315 315 314 314 314
316 316 316 316 316 317 318 318 319 320 320 321 321 321 321 321 321 321 321 321 321 321 321 320 320 320 320 320 320 321 321 321 321 321 322 322 322 323 323 324 324 324 324 324 324 324 325 325 326 326 326 326 326 325 325 324 323 322 321 321 321 321 322 322 323 324 324 324 323 322 319 317 316 315 316 316 316 316 315 315 314 314 314 313 313 312
315 316 316 316 316 316 316 317 318 319 319 319 319 320 320 320 320 320 320 321 321 321 321 321 321 321 321 320 320 321 321 321 321 321 322 322 323 323 323 324 324 324 324 324 324 324 324 325 326 326 326 326 325 325 324 323 322 322 321 321 321 321 322 323 324 324 323 322 320 318 316 315 315 316 316 316 316 315 315 314 313 313 312 312 312 311
314 315 315 315 315 315 315 315 316 317 318 318 318 319 319 319 319 319 320 320 320 320 321 322 322 322 321 321 321 321 321 321 321 321 322 322 323 323 323 323 324 324 324 324 324 324 324 325 325 326 325 325 325 324 324 323 322 321 321 321 321 321 322 323 323 322 321 319 317 316 315 315 316 316 316 316 315 314 314 313 312 312 311 311 311 310
314 314 315 315 315 315 315 314 315 315 316 316 317 317 318 318 318 318 318 319 319 319 319 320 321 321 321 321 321 321 321 321 321 321 322 322 322 323 323 323 324 324 324 324 324 324 324 325 325 325 325 324 324 323 323 322 322 321 321 321 322 322 323 322 321 319 317 316 315 315 315 316 316 316 316 315 314 313 312 312 311 311 311 310 310 309
313 314 314 314 315 315 314 314 313 313 314 314 315 316 316 317 317 317 317 317 317 317 318 318 318 318 318 319 320 321 321 322 322 321 321 322 322 323 323 323 323 323 323 323 324 324 324 324 324 324 324 323 323 323 322 322 322 321 322 322 322 323 322 321 319 317 316 315 315 315 316 316 316 315 315 314 313 312 311 311 310 310 310 310 309 309
313 314 314 314 314 314 314 313 313 312 312 313 313 314 314 315 315 316 316 316 316 316 316 316 316 316 317 317 318 318 319 320 320 321 321 321 322 322 322 322 323 323 322 323 323 323 324 324 324 323 323 323 322 322 322 322 322 322 322 323 323 322 320 318 317 316 315 315 315 316 316 315 315 314 313 312 311 311 310 310 310 309 309 309 309 309
313 314 314 314 314 313 313 313 312 312 312 312 312 312 313 313 314 314 314 315 315 315 315 315 315 315 315 315 316 317 317 318 318 319 320 320 321 322 322 322 322 322 321 321 322 322 322 323 323 323 322 322 321 321 321 322 322 322 322 322 321 320 318 316 315 315 315 315 315 315 314 313 313 312 311 310 310 309 309 309 309 309 309 309 309 309
313 314 314 313 313 313 313 312 312 312 312 311 311 311 311 312 312 313 313 314 314 314 314 314 314 314 314 314 315 315 316 316 317 317 318 319 320 321 322 321 321 320 320 320 320 320 320 320 320 321 321 321 320 319 319 319 320 320 320 319 318 317 316 315 315 315 315 315 314 313 312 311 311 310 309 309 309 309 309 309 309 309 309 309 308 308
313 314 313 313 313 313 312 312 312 312 312 311 311 311 310 310 311 311 312 312 313 313 313 313 313 314 314 314 314 315 315 315 315 316 316 317 319 320 320 320 320 319 319 320 319 317 316 316 316 316 317 318 318 317 316 315 315 315 315 315 315 314 314 314 314 314 314 313 312 311 311 310 309 309 309 309 309 309 309 309 309 309 308 308 308 308
313 313 313 313 312 312 312 312 312 312 312 311 311 310 310 309 309 310 310 311 312 312 312 313 313 313 313 313 313 314 314 314 314 314 314 315 317 318 319 319 318 318 318 319 317 314 312 311 312 312 313 313 313 313 312 311 311 311 312 312 313 313 313 313 313 313 312 311 311 310 309 309 309 309 309 309 309 309 309 309 308 308 308 308 308 308
312 312 312 312 312 312 312 312 312 312 312 312 311 310 310 309 309 309 309 309 310 311 311 312 312 312 313 313 312 312 313 313 313 312 312 313 315 316 317 317 317 316 317 318 316 312 308 308 309 309 309 309 309 309 309 309 310 310 311 311 312 312 312 312 312 311 311 310 309 309 309 308 308 308 309 309 309 309 309 309 308 308 308 308 308 308
311 311 311 312 312 312 312 312 312 312 312 312 312 311 310 309 308 308 308 308 308 309 310 311 311 312 312 312 312 312 313 313 312 312 311 312 313 314 315 316 315 314 315 317 317 314 309 307 307 307 307 307 307 307 308 308 309 310 311 311 311 311 311 311 310 310 309 309 308 308 308 308 308 308 308 309 309 309 309 309 309 309 309 308 308 308
310 310 310 311 312 312 312 312 312 312 311 312 312 311 310 309 308 307 307 307 307 308 308 309 310 310 311 311 311 312 312 313 312 311 311 311 312 312 312 313 313 312 312 314 316 316 313 310 307 306 306 306 306 307 307 308 309 310 310 311 311 310 310 309 309 309 308 308 308 308 308 308 308 308 308 309 309 309 309 309 309 309 309 308 308 308
309 309 309 310 311 312 313 313 312 312 312 311 311 311 310 309 307 307 306 306 306 307 307 308 309 309 310 310 310 311 311 312 312 311 310 310 311 311 311 311 310 310 311 311 312 312 312 310 308 306 306 306 306 306 307 307 308 309 310 310 310 309 309 308 308 308 307 307 307 307 307 307 308 308 308 309 309 309 309 309 309 309 309 308 308 308
308 308 308 309 311 312 313 313 313 313 312 312 311 311 311 309 308 307 306 306 306 306 307 307 308 308 309 309 310 310 310 310 310 310 310 309 310 310 310 309 309 309 309 310 310 309 308 308 307 306 306 305 305 306 306 306 307 308 309 309 309 308 308 307 307 307 307 307 307 307 307 307 308 308 308 308 308 309 308 308 308 308 308 308 308 307
307 307 308 308 309 310 312 313 313 313 313 312 312 311 311 310 309 308 306 306 306 306 306 307 307 307 308 308 309 309 309 310 310 309 309 308 308 309 309 309 308 308 309 309 309 308 307 306 305 306 306 305 305 305 305 306 306 307 307 308 308 307 307 307 306 307 307 307 307 307 307 308 308 308 308 308 308 308 308 308 308 308 308 308 307 307
306 306 307 307 308 309 310 311 312 312 313 312 311 311 311 311 310 309 307 307 306 306 306 306 307 307 307 307 307 308 308 309 309 309 309 308 308 308 308 308 308 307 308 309 309 308 307 305 304 304 305 305 305 304 305 305 306 306 306 306 306 306 306 306 306 307 307 307 307 307 308 308 308 308 308 308 308 307 307 307 307 307 307 307 307 307
305 306 306 307 307 308 309 310 310 311 311 311 311 311 311 311 311 310 309 308 307 307 307 306 306 306 306 306 306 306 307 307 308 308 308 308 307 307 307 308 307 307 307 308 309 308 307 305 304 303 304 304 304 305 305 305 305 305 305 305 305 306 306 306 306 307 307 307 307 307 307 307 307 307 307 307 307 306 306 306 306 306 306 306 306 306
304 305 306 306 307 307 308 309 310 310 310 309 310 310 311 311 311 310 309 308 308 307 307 307 306 306 306 306 306 306 306 306 307 307 307 307 307 306 306 307 307 307 307 308 308 308 308 307 305 304 304 304 304 305 305 305 305 305 305 305 305 305 306 306 306 306 307 307 307 307 307 307 307 307 306 306 306 306 306 305 305 305 304 304 304 304
303 304 305 306 306 307 307 308 309 309 309 309 309 309 310 311 311 311 310 310 309 308 308 307 307 306 306 306 306 306 305 305 306 306 306 306 306 305 305 306 306 307 306 306 307 307 307 307 306 305 305 305 305 305 305 305 305 305 305 305 305 305 305 306 306 306 306 306 307 307 307 307 306 306 306 306 306 306 306 305 305 305 304 304 304 304
302 303 304 305 305 306 306 307 307 308 308 308 308 308 308 309 310 310 310 310 309 309 308 308 307 306 306 306 306 305 305 305 305 305 305 305 305 305 304 305 305 306 306 306 306 306 307 306 306 305 306 306 306 306 305 305 305 305 306 306 306 306 306 306 306 306 306 306 306 306 306 306 306 306 306 305 305 305 305 305 304 304 304 303 303 303
301 302 303 304 304 305 306 306 306 306 306 306 307 307 307 307 308 309 309 309 309 309 308 308 307 307 306 306 305 305 305 304 304 304 304 304 304 304 304 304 305 305 305 305 305 305 306 306 306 306 306 306 306 306 305 305 305 305 306 306 306 306 306 306 306 306 306 306 306 306 306 306 306 306 305 305 305 304 304 304 303 303 303 303 302 302
301 301 302 302 303 304 305 305 305 305 305 305 305 306 306 306 306 307 308 308 309 309 308 308 307 307 306 306 305 305 304 304 303 303 303 303 303 303 304 304 304 304 304 304 305 305 305 306 306 306 306 306 306 306 305 305 305 305 306 306 306 306 305 305 305 306 306 306 306 306 306 305 305 305 305 305 304 304 303 303 303 303 302 302 302 301
300 301 301 302 302 303 303 304 304 304 304 305 305 305 305 305 305 305 306 306 307 308 308 308 308 307 307 306 306 305 304 304 303 303 302 302 303 303 303 303 304 304 304 305 305 306 307 307 306 306 305 305 305 306 305 305 306 306 306 306 306 306 306 306 306 306 305 305 305 305 305 305 305 304 304 304 303 303 303 303 303 302 302 302 301 301
300 300 300 301 301 302 302 303 303 303 304 304 304 304 304 304 304 304 305 305 305 306 307 307 307 307 306 306 306 305 305 304 303 303 302 302 303 303 303 303 303 304 305 305 306 307 307 307 307 306 305 305 305 305 305 305 305 306 306 306 306 306 306 306 306 306 306 305 305 305 305 304 304 304 303 303 303 303 303 303 302 302 302 301 301 301
300 300 300 300 300 301 301 302 302 303 303 303 303 303 303 303 303 304 304 304 304 305 305 306 306 306 306 306 306 306 305 305 304 303 303 303 303 303 303 303 303 304 304 305 306 307 307 307 306 306 305 305 305 305 305 305 305 305 305 305 306 306 305 305 305 305 305 305 304 304 304 304 303 303 303 303 302 302 302 302 302 302 301 301 301 300
300 300 300 299 300 300 301 301 302 302 302 302 303 303 303 303 303 303 303 303 304 304 305 305 305 305 306 306 306 306 306 306 305 304 304 303 303 303 303 303 303 304 304 305 305 306 306 307 306 306 306 306 306 306 305 305 305 305 305 305 305 305 305 305 304 304 304 303 303 303 303 303 303 302 302 302 302 302 302 301 301 301 301 301 300 300
300 300 299 299 299 300 300 301 301 301 301 302 302 302 302 302 302 302 303 303 303 304 304 304 305 305 305 305 305 306 306 306 306 305 305 304 304 304 304 304 304 304 304 304 304 305 305 305 305 305 305 306 306 306 306 305 305 305 305 305 305 305 305 304 304 303 303 302 302 302 302 302 302 302 302 302 302 301 301 301 301 300 300 300 300 300
300 300 299 299 299 299 300 300 300 301 301 301 301 302 302 302 302 302 302 302 303 303 303 304 304 304 304 305 305 305 305 306 306 306 305 305 305 305 305 305 304 304 304 304 304 304 304 304 304 304 304 304 304 305 305 305 304 304 303 303 303 303 303 303 303 303 302 302 302 302 301 301 301 301 301 301 301 301 301 301 300 300 300 300 299 299
300 299 299 299 299 299 299 299 300 300 300 301 301 301 301 301 301 301 301 302 302 302 302 303 303 304 304 304 304 304 305 305 305 306 305 306 306 305 305 305 305 304 304 304 303 303 303 303 303 303 303 303 303 303 303 304 303 303 302 302 302 302 302 302 302 302 302 302 301 301 301 301 301 300 300 300 300 300 300 300 300 299 299 299 299 298
299 299 299 299 298 298 299 299 299 299 300 300 300 300 301 301 301 301 301 301 301 301 301 302 302 303 303 304 304 304 304 304 305 305 305 305 305 305 305 305 305 304 304 303 303 302 302 302 302 302 302 302 302 302 302 303 303 303 302 302 302 302 302 302 302 302 301 301 301 301 301 300 300 300 300 300 300 300 300 300 299 299 299 298 298 298
Wind_Speed
49 50 50 50 49 47 46 46 47 49 50 48 44 40 39 39 37 34 31 30 30 31 32 33 33 32 32 31 31 31 32 33 34 36 38 39 40 40 40 40 40 40 40 38 36 33 30 30 30 32 34 36 38 39 39 40 39 39 39 39 39 40 41 42 43 44 46 47 48 47 46 43 41 39 37 35 33 32 30 29 28 27 26 25 25 24
47 49 49 50 49 48 48 48 48 49 48 47 44 41 40 40 39 37 35 34 33 33 34 34 34 33 33 32 32 32 32 33 34 36 37 39 40 41 41 40 40 39 39 38 36 34 32 32 32 33 35 37 39 40 40 41 40 39 37 36 36 38 41 43 45 47 49 50 50 49 47 44 41 38 36 34 33 32 31 30 29 28 28 27 26 25
44 47 49 50 50 50 50 50 50 49 48 47 47 45 44 42 40 38 37 37 36 36 35 35 35 34 34 33 33 33 33 34 35 36 37 38 39 40 40 39 38 36 36 36 36 36 35 35 35 35 36 38 39 40 40 39 37 35 34 32 32 35 39 43 47 49 51 52 51 50 47 44 40 38 35 34 33 33 32 31 31 30 29 28 27 26
40 44 47 49 50 50 50 51 50 50 49 49 49 47 44 41 38 37 37 37 37 37 37 36 36 35 34 34 34 34 34 35 36 37 38 38 39 39 38 37 36 34 33 33 34 35 36 36 35 36 37 39 40 40 39 37 34 32 32 31 31 33 38 44 48 51 52 53 52 49 46 42 39 37 36 35 35 34 33 33 32 31 31 30 28 27
36 40 43 46 47 47 48 49 48 48 48 48 47 43 38 36 34 34 34 36 37 38 38 37 36 35 35 34 34 34 35 36 37 38 38 39 39 38 37 36 34 32 31 31 32 33 34 35 35 36 37 40 41 42 41 38 35 34 34 33 32 33 37 43 48 52 53 52 50 48 44 41 39 38 37 37 37 36 35 34 33 33 32 30 29 28
31 34 38 41 42 43 44 44 44 45 45 44 41 36 31 29 28 29 31 33 36 37 37 37 37 36 35 35 35 34 34 35 36 37 39 40 40 39 37 35 33 32 31 30 30 31 32 33 34 36 38 41 42 43 43 41 38 37 36 34 33 33 36 41 46 50 51 51 48 46 43 41 40 40 40 39 38 37 36 36 35 34 32 31 29 28
28 30 33 36 38 40 41 41 41 43 43 43 39 34 30 27 26 26 27 30 33 36 37 37 37 37 36 36 35 35 34 33 34 35 38 40 40 40 38 36 34 33 32 32 31 31 31 32 34 36 38 40 42 42 42 41 39 38 36 35 34 34 36 39 42 46 48 47 46 44 42 42 43 43 42 41 40 39 38 37 36 35 33 31 29 28
32 31 32 34 36 38 39 40 41 43 44 44 42 38 35 32 29 27 26 27 30 34 37 38 38 38 38 37 36 35 34 33 33 34 36 38 39 39 38 37 36 35 34 33 33 33 32 33 34 35 37 38 39 39 39 39 38 37 36 36 36 36 36 36 38 40 42 42 42 43 43 44 45 45 44 43 41 40 39 39 38 36 34 31 29 28
36 35 35 36 37 38 40 41 43 44 46 47 47 45 43 41 38 34 31 30 30 32 36 38 40 40 40 39 38 37 36 35 34 34 35 37 37 38 38 38 38 38 36 35 35 34 34 34 34 35 35 36 36 36 36 36 37 36 36 36 37 37 37 36 36 36 37 38 40 42 45 46 47 46 45 43 42 42 41 40 39 37 34 31 29 27
37 38 38 38 40 41 42 44 45 47 48 49 50 51 50 49 48 45 42 38 36 34 35 38 40 41 41 40 39 38 38 37 36 36 37 37 37 37 37 38 39 39 38 37 36 36 36 36 35 35 35 35 35 35 35 36 36 36 36 36 37 38 38 37 36 34 35 36 39 42 45 47 48 47 45 44 43 43 43 42 40 37 33 30 28 26
39 39 40 40 41 43 44 46 47 49 50 50 50 51 52 53 53 52 51 48 43 39 37 37 38 40 41 40 40 39 38 37 37 37 37 38 38 38 37 38 38 38 38 38 38 38 38 37 37 36 36 36 35 35 35 36 36 36 37 37 38 38 39 38 37 35 35 36 39 42 45 47 48 47 46 45 45 45 44 42 39 35 31 29 27 26
40 40 41 42 43 44 45 46 48 49 49 48 47 47 49 51 52 54 54 53 49 44 40 37 37 37 38 38 38 37 37 37 37 37 37 38 38 38 38 38 38 38 38 39 39 40 40 39 39 38 38 37 37 36 36 36 37 37 38 38 38 39 39 39 38 37 37 39 40 43 45 48 48 48 47 46 46 46 44 42 38 34 30 28 27 26
39 40 41 42 43 44 45 45 46 47 47 47 47 47 48 50 51 52 53 53 50 46 41 37 36 35 35 35 35 35 35 35 35 35 36 37 37 38 38 38 38 38 38 39 40 40 40 41 41 40 40 39 38 37 37 37 38 38 39 39 39 39 40 40 40 40 40 42 43 45 47 49 49 49 48 48 47 46 44 41 37 34 32 30 28 27
35 39 40 42 43 44 45 46 47 47 47 49 50 51 51 51 50 50 51 50 48 44 40 37 35 33 32 32 31 31 31 32 33 33 34 35 36 36 37 37 37 38 37 38 38 39 40 41 41 42 41 40 39 38 38 38 39 39 39 39 40 40 41 41 42 42 43 45 46 48 50 50 51 50 50 49 49 47 44 41 37 33 31 29 27 27
30 35 39 41 43 45 46 47 48 49 49 50 51 51 51 51 50 50 49 47 45 42 39 36 33 32 31 31 30 30 30 30 31 32 33 34 35 36 36 37 37 37 36 36 37 37 38 40 42 43 43 42 41 40 40 39 39 40 40 40 40 41 41 42 42 44 46 47 49 51 52 52 52 52 52 51 50 48 44 38 34 30 28 27 26 26
25 31 37 41 43 45 47 48 48 49 49 50 50 50 49 49 50 50 49 48 45 42 39 36 34 33 33 33 33 32 32 32 31 32 32 33 35 36 37 37 37 37 36 36 36 36 37 39 41 43 44 44 43 42 41 41 40 40 40 40 40 41 41 41 42 44 46 48 50 52 53 53 53 53 53 53 50 45 39 32 28 26 25 25 25 24
21 26 33 38 42 45 47 48 49 49 49 49 49 49 49 49 50 50 49 48 46 43 41 39 37 36 37 38 39 39 38 37 36 35 34 33 34 35 37 38 38 38 37 37 36 36 37 39 41 43 45 45 45 44 43 42 40 39 38 38 39 39 39 40 41 43 44 46 49 50 50 51 53 54 54 51 44 37 31 27 25 24 24 24 24 23
19 22 27 33 38 42 45 47 48 49 49 49 49 49 49 49 50 50 50 49 47 46 44 43 42 42 42 43 45 46 45 43 41 40 39 37 36 35 35 37 38 39 38 38 38 38 38 39 41 43 44 45 46 45 45 43 40 37 36 35 36 35 35 36 38 40 41 42 44 47 49 51 53 53 51 44 36 29 25 24 24 24 24 24 23 23
17 18 22 28 34 39 42 45 47 48 49 49 49 49 48 49 49 50 50 50 50 49 48 47 47 48 48 49 51 51 50 48 46 45 45 43 41 38 36 36 38 39 39 40 39 39 39 39 40 41 43 44 45 45 45 42 39 35 33 33 33 33 33 33 35 37 39 40 43 46 50 52 53 49 43 35 29 25 24 24 24 25 24 24 24 24
14 15 17 22 28 34 38 42 45 47 48 49 50 50 49 49 49 49 50 51 52 53 53 52 52 52 53 54 55 55 53 52 50 49 48 48 46 44 41 39 38 39 40 41 41 40 40 40 40 40 41 42 43 43 42 39 36 34 32 31 31 32 32 33 34 36 39 42 46 50 52 52 49 43 35 29 26 25 25 26 26 26 25 25 25 25
12 13 14 17 21 27 34 38 41 44 46 47 48 49 49 50 50 50 51 52 53 54 55 54 55 56 56 55 56 56 56 54 52 50 50 50 49 48 46 43 41 40 41 42 42 41 40 40 40 40 40 40 40 40 38 36 34 32 31 31 31 32 33 35 37 40 43 47 51 52 52 48 42 36 30 27 27 27 27 27 27 27 26 26 25 25
10 11 12 14 16 21 26 31 35 39 42 44 46 47 48 49 49 50 51 52 53 54 55 56 57 58 57 56 57 58 57 56 53 51 50 49 49 49 49 46 43 42 42 43 42 42 41 41 40 40 39 39 39 38 36 35 33 32 31 31 32 33 35 39 42 46 49 52 53 51 47 41 35 31 29 28 29 29 29 28 28 27 26 25 25 24
10 10 11 12 14 17 20 24 28 32 36 40 42 44 46 47 47 49 50 50 51 52 53 55 56 57 57 57 57 57 57 55 54 51 49 47 47 48 49 47 45 44 44 44 44 43 42 41 40 40 38 38 37 36 35 34 33 32 32 31 32 35 38 43 47 51 53 53 51 46 40 35 31 30 30 30 30 30 29 29 28 26 25 24 24 24
10 10 10 12 14 15 17 19 22 26 29 33 37 40 42 43 44 45 46 47 48 48 49 51 52 53 54 56 57 57 57 56 53 50 47 46 46 47 47 46 45 45 45 45 45 44 43 42 41 39 38 37 35 34 33 33 33 32 32 32 33 36 41 46 50 52 52 50 45 40 35 32 31 31 31 31 31 30 29 28 27 26 25 24 24 24
10 9 10 12 13 15 16 17 19 21 24 27 30 33 36 39 41 42 43 44 45 45 46 46 46 46 48 51 52 54 55 55 53 50 47 46 45 45 45 45 45 45 46 46 46 45 44 42 41 39 37 36 35 34 33 32 32 32 32 33 36 40 45 49 52 52 49 45 40 36 33 32 32 32 32 32 31 29 28 27 26 25 24 23 23 24
10 10 10 11 12 14 16 17 17 18 20 21 24 27 30 33 36 38 39 41 42 42 42 42 42 42 43 45 46 48 50 51 51 49 47 46 45 44 44 44 44 45 46 47 46 46 44 43 41 39 38 37 37 36 35 34 33 33 34 36 40 44 49 51 52 50 46 41 37 34 33 33 33 32 32 31 29 28 27 26 25 24 23 23 23 22
11 9 8 8 9 11 13 14 16 16 17 18 19 21 23 26 29 33 35 37 39 40 40 40 40 40 40 40 41 43 45 46 46 47 47 46 45 45 45 44 44 45 47 47 47 46 45 44 42 41 40 39 40 41 41 41 40 40 41 43 46 49 51 52 50 47 43 39 36 34 33 32 32 31 30 28 28 27 26 25 24 23 22 21 21 21
11 7 5 4 4 5 6 8 10 12 13 15 16 17 19 21 24 28 32 34 35 37 38 39 40 39 39 39 40 41 43 44 46 47 47 46 46 46 46 45 45 46 48 48 47 46 45 45 45 45 44 44 45 47 48 48 48 48 48 49 50 52 52 51 48 44 39 36 34 32 31 30 29 28 27 27 26 25 24 23 22 22 21 20 20 20
12 8 5 4 4 3 3 3 3 5 7 9 12 13 15 17 20 24 27 29 31 34 36 38 39 39 39 39 40 41 42 44 46 48 47 46 46 46 47 46 46 48 49 49 47 45 45 46 47 48 48 49 49 51 52 52 52 52 52 52 52 52 50 47 43 39 36 33 31 30 29 28 27 26 26 25 25 24 24 23 22 21 21 20 20 20
13 10 8 6 5 3 2 1 1 2 3 5 7 9 12 14 16 19 21 23 27 31 34 36 37 38 39 39 38 39 41 44 46 47 46 45 46 47 47 47 48 50 50 50 47 44 44 45 47 48 50 51 52 53 53 53 53 52 52 51 49 47 44 41 38 35 32 30 29 28 27 27 26 26 25 25 25 24 23 22 22 21 21 20 20 19
14 12 10 9 8 6 6 4 3 2 1 2 4 6 8 11 12 14 16 19 23 27 31 33 35 36 37 37 37 38 41 44 45 45 45 44 45 47 48 49 50 51 51 51 48 45 42 43 45 47 49 51 51 52 53 53 52 51 50 47 44 41 38 35 33 31 29 29 28 27 26 26 26 25 25 24 24 23 23 22 22 21 21 20 19 19
14 13 12 12 11 10 9 8 6 4 3 2 3 4 6 8 9 11 13 16 19 23 26 29 31 33 35 36 37 39 41 43 44 44 44 43 44 46 47 50 52 53 52 52 52 49 45 45 45 47 48 49 50 50 51 51 51 50 48 45 41 37 34 32 30 29 29 28 27 26 25 25 25 24 24 24 23 23 22 22 21 21 20 19 19 18
13 12 12 13 13 13 12 10 8 6 5 4 3 3 5 6 8 9 11 14 16 19 22 25 27 30 32 34 36 38 40 42 43 44 43 42 43 44 47 50 52 54 53 53 53 53 51 51 51 49 48 48 48 49 49 49 48 47 46 43 40 37 34 32 31 30 29 28 27 25 25 24 24 23 23 23 22 22 21 21 20 20 19 19 18 18
12 12 12 13 14 15 14 13 10 8 7 6 5 4 5 6 7 9 11 12 14 17 19 21 23 26 29 31 33 35 37 40 42 43 43 41 41 43 46 49 52 53 53 52 51 51 52 54 55 53 50 48 47 47 46 46 45 44 42 40 38 36 35 33 32 30 29 28 26 25 24 23 23 23 22 22 21 21 21 20 20 19 19 18 18 18
12 12 12 13 14 16 16 15 13 11 9 8 7 6 6 6 8 9 10 12 13 14 16 17 18 21 23 25 27 29 32 35 38 40 41 39 38 40 44 48 51 52 52 52 50 49 50 53 55 55 53 49 46 45 44 43 43 41 39 37 35 34 33 32 31 29 28 26 25 24 24 23 23 23 22 22 21 21 20 19 19 19 19 19 19 19
11 12 12 13 14 15 17 17 16 14 12 10 9 8 8 7 8 9 10 11 13 13 14 15 15 16 18 19 20 22 25 28 32 35 37 36 35 36 41 46 49 50 50 50 49 49 50 51 54 55 54 51 48 45 43 41 40 38 36 34 33 32 30 29 28 26 25 24 24 24 23 23 23 23 22 21 21 20 19 19 19 19 19 20 20 20
11 12 12 13 13 14 16 17 17 16 15 13 11 10 10 9 9 9 10 11 12 12 13 13 14 14 15 15 16 17 18 21 25 30 33 34 32 31 36 42 46 47 48 49 49 49 50 51 51 51 51 51 49 47 43 41 39 37 35 33 31 30 28 26 25 24 24 24 24 23 23 23 23 22 21 20 20 19 19 19 19 19 20 20 21 21
11 12 12 13 14 14 15 16 17 17 16 15 14 13 12 11 10 10 10 11 11 11 12 12 12 12 12 12 13 13 14 17 21 25 29 31 29 27 29 37 43 45 46 48 49 49 51 52 51 49 48 49 49 48 45 42 39 37 35 33 31 29 27 26 25 24 24 24 24 24 23 23 22 22 21 20 20 20 19 19 20 20 21 21 22 22
12 12 13 13 14 14 15 16 16 17 17 16 16 15 14 13 12 12 11 11 11 10 10 10 11 11 11 11 11 11 12 15 18 22 25 28 27 25 24 31 38 43 44 45 47 48 50 52 52 51 49 47 46 45 43 42 39 37 35 33 31 29 27 26 26 25 25 25 24 24 23 23 22 21 21 21 21 21 21 21 21 21 22 22 23 23
13 13 13 14 14 14 14 15 15 16 16 16 16 16 16 15 14 14 13 12 11 11 10 10 10 10 10 10 10 10 11 13 15 19 22 24 25 24 22 24 32 39 42 42 43 45 48 50 52 52 51 47 44 41 39 38 37 35 34 33 31 30 29 28 27 27 26 26 25 24 24 23 23 22 22 22 22 22 22 22 22 22 23 23 23 23
14 14 14 14 15 14 14 14 15 15 16 16 16 17 17 17 17 17 15 14 13 12 11 11 10 10 10 10 10 10 10 11 14 17 20 22 23 23 22 22 27 34 39 39 38 39 43 46 47 47 45 42 39 37 35 34 33 32 32 32 31 31 30 29 29 28 27 26 26 25 24 24 23 23 23 23 23 23 23 22 22 22 23 23 23 24
16 15 15 15 15 15 14 14 15 15 15 15 15 16 17 17 18 18 18 17 15 14 13 12 12 11 11 11 10 10 10 12 14 17 19 20 21 21 22 23 26 31 35 36 35 34 36 38 39 37 35 34 33 32 31 31 31 31 31 31 30 30 30 30 29 29 28 27 26 26 25 25 25 24 24 24 24 24 24 23 23 23 23 23 23 23
17 16 16 16 15 15 15 15 15 15 15 15 14 15 15 16 17 18 18 18 17 16 15 15 14 13 13 12 12 12 12 13 16 18 20 20 20 21 22 25 27 30 33 34 34 33 33 33 32 30 29 28 27 28 29 30 30 30 30 30 30 30 30 30 30 29 29 28 28 27 27 26 26 26 25 25 25 25 24 24 24 23 23 23 23 23
18 17 17 17 16 16 15 16 16 15 15 14 14 14 14 14 15 17 17 18 18 18 18 17 16 15 15 14 14 14 14 15 17 20 22 22 21 21 23 26 29 31 32 33 33 33 33 31 29 27 26 25 25 26 27 28 29 30 30 30 30 30 31 30 30 29 29 29 28 28 28 27 27 26 26 26 25 25 25 25 24 24 23 23 23 22
19 18 18 17 17 16 16 16 16 16 15 14 14 13 13 14 15 15 16 17 17 18 18 18 18 17 17 16 16 15 16 17 19 21 23 23 23 22 23 25 29 31 32 32 33 32 32 30 29 27 26 26 26 26 27 28 28 29 29 30 30 30 30 30 30 29 29 29 28 28 28 27 27 26 26 25 25 25 25 25 24 24 23 23 23 23
20 19 18 18 17 17 17 17 16 16 15 15 14 14 14 14 14 15 15 16 16 17 18 18 18 18 18 18 18 18 18 18 20 22 23 24 24 24 23 24 26 29 30 31 31 31 30 29 28 27 27 27 28 28 29 29 29 29 30 30 31 31 31 31 31 30 29 29 28 27 27 27 26 26 25 25 25 25 25 25 24 24 23 23 23 23
20 20 19 18 18 18 17 17 17 16 16 15 14 14 14 14 14 15 15 16 16 17 17 18 18 19 19 20 20 20 20 20 21 22 24 25 26 25 25 24 25 26 28 28 28 28 28 27 27 28 29 30 31 31 31 30 30 31 31 31 32 32 32 32 31 30 29 28 28 27 26 26 26 26 26 25 25 25 25 25 24 24 24 24 24 24
21 20 19 19 18 18 18 17 17 17 16 16 15 15 15 15 15 15 15 16 16 17 17 18 18 19 19 20 21 21 21 22 22 23 24 25 26 27 26 26 25 25 26 26 26 25 25 25 26 26 27 29 30 31 32 31 30 30 30 31 31 31 31 31 30 29 29 28 27 27 26 26 26 26 26 25 25 25 25 25 25 24 24 24 24 24
21 20 20 19 19 18 18 18 18 18 17 16 16 15 15 15 15 15 15 16 16 17 17 18 18 19 19 20 21 22 22 23 23 24 24 25 26 27 27 27 26 25 25 25 24 24 24 24 24 25 25 25 26 27 28 29 28 28 27 28 28 28 28 28 27 27 27 27 27 26 26 26 25 25 25 25 26 26 26 25 25 25 25 25 25 25
22 21 20 20 19 19 19 19 18 18 18 17 17 17 16 16 16 16 16 16 16 17 17 17 18 19 19 20 21 22 22 23 24 25 25 25 26 26 27 27 26 26 25 24 24 24 24 24 24 24 24 24 23 23 24 25 26 26 25 25 25 25 24 25 25 25 26 26 26 25 25 25 25 25 25 25 25 26 26 26 26 26 25 25 25 25
22 22 21 21 20 20 20 19 19 19 19 18 18 18 17 17 17 17 17 16 17 17 17 17 17 18 19 20 21 21 22 22 23 24 24 24 25 25 26 26 26 26 25 25 24 24 24 23 23 23 23 23 24 23 22 23 24 24 25 24 24 24 23 23 23 24 24 24 24 24 24 24 25 25 25 25 25 25 26 26 26 26 25 25 25 24
Wind_Direction
218 219 221 222 224 227 230 235 237 235 230 226 224 225 228 231 232 231 230 228 227 227 227 226 226 226 226 225 225 224 224 223 223 222 221 219 219 219 220 222 223 223 221 218 215 213 213 214 217 221 224 227 229 230 231 232 233 233 233 232 232 233 235 237 238 237 236 233 231 230 229 229 229 229 229 228 227 227 227 227 226 225 223 222 219 218
218 218 220 221 223 226 229 233 236 236 231 226 222 222 225 229 230 231 233 233 232 230 229 228 227 226 225 225 225 224 223 223 224 224 223 222 221 221 221 223 225 225 224 220 216 213 211 211 213 215 219 223 226 228 230 231 232 232 231 229 229 231 234 237 237 236 233 230 227 226 225 225 226 226 227 227 227 228 228 228 227 226 225 223 221 219
217 217 219 220 223 225 228 232 235 236 233 227 224 223 226 227 227 227 229 231 231 232 231 230 229 227 226 225 224 223 222 222 223 223 224 223 223 223 223 224 225 226 225 222 219 215 213 212 211 212 215 218 222 226 229 231 232 232 232 232 233 234 234 234 233 232 229 226 224 223 222 222 224 226 228 230 230 231 231 230 229 229 228 226 223 221
217 217 219 220 223 225 228 231 234 235 234 230 227 228 230 229 227 225 225 226 228 230 232 232 231 230 229 227 225 223 221 221 221 222 223 224 224 224 225 225 226 226 226 225 223 220 218 217 215 214 214 215 219 224 229 232 234 236 237 238 239 238 235 231 229 227 225 223 221 220 220 221 224 229 233 234 234 233 232 231 231 231 230 228 225 222
218 218 219 220 222 224 227 230 233 234 233 230 229 230 231 230 229 227 226 226 227 228 230 231 232 233 232 231 229 226 223 221 220 221 222 224 225 225 226 226 226 227 227 227 226 226 224 223 220 217 215 216 219 225 230 235 238 240 240 241 242 241 236 231 227 224 222 220 219 219 221 225 230 235 238 237 235 233 232 231 232 232 231 229 225 222
220 219 220 221 222 223 225 228 229 229 228 226 225 225 226 226 228 230 232 231 230 229 229 230 232 234 235 235 234 231 227 223 221 221 222 224 225 226 226 227 227 227 228 228 228 228 227 225 222 220 219 220 224 229 233 238 240 241 241 242 243 242 237 232 227 224 222 221 221 223 226 231 236 239 239 237 234 232 231 232 232 232 231 228 225 221
231 226 223 222 223 224 225 226 225 224 221 219 219 220 222 224 227 231 235 237 237 235 233 231 232 233 235 236 236 235 231 227 224 223 224 224 224 224 224 226 227 228 229 229 229 228 227 225 224 223 224 227 230 233 236 239 241 241 242 243 243 242 238 233 229 226 224 224 225 228 232 236 239 239 238 235 232 231 231 232 233 232 230 227 223 219
243 238 233 228 226 226 226 226 225 222 219 218 218 220 224 227 229 233 237 240 242 241 238 235 233 233 233 235 235 235 233 230 227 225 226 225 223 222 222 223 226 228 229 229 229 228 228 227 226 227 228 230 233 235 237 239 240 241 242 243 243 241 238 233 230 228 228 229 231 234 236 237 237 236 234 231 230 229 230 232 232 231 229 225 221 218
248 245 243 239 235 231 229 229 228 226 223 222 223 225 227 230 232 234 236 240 242 243 241 238 235 233 233 233 233 234 233 231 228 226 226 225 224 222 221 222 224 226 228 229 229 229 229 229 228 229 229 231 232 234 236 237 238 240 242 244 244 243 239 233 231 231 232 235 238 239 238 236 233 231 229 228 227 228 229 230 231 230 227 222 218 214
247 247 246 245 243 239 235 234 233 232 231 230 230 231 232 233 234 234 235 236 238 240 241 239 237 234 232 232 232 232 232 232 231 228 227 226 226 225 224 223 224 225 227 228 229 230 230 230 230 230 230 231 232 233 234 235 237 238 241 244 245 245 242 237 235 236 239 242 243 242 239 234 230 227 225 226 226 227 228 229 229 227 223 218 212 208
243 244 244 243 244 243 240 238 237 237 236 234 234 234 235 234 234 233 231 232 233 235 238 238 236 233 231 230 230 231 231 232 232 230 228 227 227 227 228 228 228 228 229 230 230 231 231 231 231 231 230 230 231 232 233 234 236 237 239 243 245 246 245 242 240 242 246 247 246 243 237 232 227 224 224 225 225 226 226 226 225 223 217 211 204 199
238 239 239 239 239 238 237 237 237 236 235 231 228 227 228 230 231 230 228 227 228 230 233 235 234 231 229 228 228 229 230 231 231 231 230 228 228 228 229 230 231 232 232 233 233 232 232 231 231 231 231 231 231 231 232 233 235 236 238 241 244 245 245 244 244 245 246 246 243 239 234 229 225 223 223 223 224 224 224 223 220 215 208 201 196 194
236 236 235 234 234 233 232 231 230 230 229 227 224 222 223 226 227 227 225 224 225 227 230 233 232 228 226 226 226 228 229 231 231 231 231 230 229 229 230 231 232 233 234 234 234 233 232 232 231 231 231 231 231 231 232 233 234 236 237 239 241 242 242 241 242 242 242 241 238 234 229 226 223 222 221 222 222 221 220 218 213 206 201 197 197 198
234 233 232 230 230 230 230 229 227 226 226 227 228 229 229 229 228 226 224 223 223 225 228 229 227 224 222 222 224 226 229 230 232 232 232 232 231 231 231 232 233 234 234 235 235 234 233 232 231 231 231 230 231 231 232 233 233 234 235 236 237 237 238 237 237 237 236 234 231 227 224 221 220 219 219 219 219 218 216 212 208 205 205 206 208 209
234 230 228 227 227 228 229 230 230 229 230 232 233 233 233 231 230 227 223 222 223 224 225 224 223 221 221 222 224 227 229 231 233 233 234 233 233 233 233 233 234 235 235 236 236 236 235 233 232 230 230 229 229 230 231 231 232 232 233 233 233 233 234 234 234 233 232 229 226 223 220 219 219 219 219 219 218 216 214 211 210 212 216 219 219 216
240 233 228 227 227 229 231 232 232 232 233 234 233 232 230 229 229 227 223 221 222 222 222 220 219 220 223 226 228 231 232 234 236 237 237 237 235 234 234 234 234 235 236 237 237 237 236 234 231 229 229 228 228 228 229 229 230 230 230 230 230 230 231 232 231 230 229 227 225 223 222 222 222 222 222 220 217 215 214 214 218 222 225 223 219 214
250 240 232 229 228 229 231 233 234 234 234 233 233 231 230 229 229 227 223 221 221 221 221 220 219 221 224 228 231 234 236 237 239 241 242 242 241 238 236 235 234 235 236 237 238 238 237 235 231 228 226 226 227 227 227 228 228 227 227 227 227 228 229 228 227 227 229 229 228 228 228 228 227 225 222 219 216 215 217 221 224 225 222 218 214 210
258 250 240 233 229 229 230 231 232 233 234 233 232 231 231 230 229 226 223 221 221 221 222 223 223 224 227 230 233 235 237 238 240 242 245 247 246 244 241 238 236 236 236 237 237 238 238 237 234 230 226 225 225 225 225 225 225 225 225 225 225 227 229 229 228 228 230 232 233 234 233 232 229 224 219 216 215 217 221 222 221 218 215 211 209 208
262 257 250 241 235 231 230 230 230 231 231 232 232 232 230 229 228 226 224 223 223 224 225 227 228 230 232 235 237 238 239 241 242 244 246 248 250 249 247 242 239 237 236 236 237 237 237 237 236 233 229 225 223 223 223 223 223 223 223 224 225 227 229 231 231 231 233 235 236 236 233 230 225 219 215 214 216 218 218 215 212 210 208 207 207 208
264 262 258 251 244 238 233 231 231 231 232 234 234 233 231 230 229 227 226 226 226 228 229 230 232 234 236 238 241 242 243 243 244 245 247 249 251 252 251 247 243 239 237 236 236 236 236 237 237 236 232 227 224 223 222 221 221 222 223 224 226 228 230 232 234 235 236 236 235 232 227 222 218 214 213 214 215 213 210 207 206 205 205 206 207 209
268 266 263 259 253 247 241 237 235 234 234 234 234 233 233 232 231 230 230 229 230 230 232 233 235 238 240 241 243 244 245 245 245 246 248 249 251 251 251 249 246 242 239 237 236 235 235 236 236 236 233 229 227 225 223 222 222 223 224 225 228 230 233 235 236 236 235 233 229 223 218 214 211 210 211 211 210 207 204 203 203 204 205 207 209 210
268 270 268 262 257 254 250 246 242 239 237 235 233 232 233 233 232 232 233 233 232 232 233 235 237 239 241 242 244 245 246 247 246 246 247 247 248 249 250 249 246 243 240 237 236 234 234 234 235 234 233 230 228 227 225 224 224 224 224 226 229 233 235 236 235 233 229 225 219 214 210 208 207 208 208 206 204 202 201 201 203 204 206 208 209 211
262 269 270 265 258 254 252 251 248 245 242 239 237 235 235 234 234 234 234 233 233 233 234 236 237 239 240 242 243 245 246 247 247 247 245 243 243 246 247 246 244 242 240 237 235 234 233 233 232 232 231 230 229 228 226 225 224 224 224 227 231 234 236 235 231 226 220 215 210 207 205 205 205 205 204 203 201 200 201 202 203 205 207 208 209 210
256 265 270 268 260 252 248 247 247 246 244 243 241 240 238 237 236 235 234 233 233 232 233 234 234 235 237 239 241 242 244 245 246 245 242 240 241 243 244 243 241 239 238 236 234 232 232 231 230 229 229 228 228 228 227 225 224 224 225 228 232 234 233 229 223 217 211 207 204 202 203 203 204 203 202 201 200 200 201 203 204 205 205 206 207 208
253 261 267 266 260 252 245 241 242 243 243 244 243 242 241 240 238 237 235 234 232 231 231 231 230 229 231 234 235 237 240 241 242 241 238 236 237 238 238 238 237 235 233 232 231 230 229 229 228 227 226 226 226 227 226 225 224 224 226 230 232 231 227 221 215 209 205 202 201 202 203 203 203 201 200 200 200 200 202 203 203 203 204 204 206 207
250 257 263 263 258 251 244 238 236 237 238 240 242 243 242 242 241 239 237 234 233 231 230 229 227 226 228 229 229 230 232 234 235 235 233 231 230 231 231 233 232 230 227 226 225 224 224 225 224 223 222 221 222 223 224 225 225 226 227 228 228 224 219 213 208 204 202 201 202 204 204 203 201 200 199 199 199 200 201 202 202 202 202 203 205 207
246 252 258 257 251 245 239 235 233 232 232 233 236 239 241 242 242 240 237 235 234 233 231 228 226 225 225 225 224 223 224 223 224 225 226 225 224 224 225 226 225 223 220 218 217 217 216 217 217 217 216 216 216 216 218 220 222 224 224 223 221 216 211 206 203 201 201 202 204 205 204 201 199 198 197 197 198 199 199 200 200 200 201 202 204 206
238 237 232 222 217 221 224 226 227 227 227 228 230 232 235 238 239 239 237 237 236 235 232 229 226 224 223 221 220 220 218 214 213 214 217 218 218 219 220 220 219 216 213 211 210 209 207 207 207 208 209 209 209 210 211 213 215 216 216 214 211 207 204 201 200 200 202 204 204 203 201 199 197 196 195 195 196 197 197 198 198 198 199 201 203 205
231 220 197 173 159 154 160 178 196 208 213 217 221 223 226 230 235 238 239 238 236 234 232 230 227 225 223 222 221 218 214 209 207 208 209 209 211 214 216 214 212 212 210 206 204 201 198 198 197 198 199 201 202 203 203 204 204 204 204 202 201 199 198 198 199 200 202 202 201 199 196 195 194 193 194 194 195 195 196 196 197 198 199 201 203 206
227 214 199 186 181 183 187 170 153 162 180 193 203 210 216 221 229 236 238 237 236 234 231 229 228 227 225 223 220 215 210 206 205 205 204 203 205 208 209 207 207 208 207 202 195 190 188 189 190 190 191 193 194 195 195 195 194 193 193 193 194 194 195 196 198 199 199 197 195 192 191 191 191 192 193 194 194 195 196 197 198 199 201 203 206 208
228 217 208 202 205 218 235 245 247 234 195 180 186 195 203 211 220 228 233 235 237 236 233 231 230 229 228 224 218 212 208 207 206 204 203 202 202 204 204 201 201 203 205 201 191 182 178 181 184 186 187 187 188 188 189 188 188 188 188 189 191 192 194 195 195 194 192 190 189 188 189 190 192 193 194 195 196 197 198 199 201 204 206 209 211 215
234 224 217 211 213 222 234 242 247 248 243 223 195 186 190 200 209 219 227 233 237 238 237 235 233 232 231 228 222 217 213 210 208 206 203 202 202 201 200 198 196 197 199 201 196 187 178 176 179 181 182 182 183 184 185 185 186 187 188 188 189 190 191 191 190 188 187 187 187 189 191 193 194 195 196 197 198 200 201 203 206 209 213 216 218 222
245 234 225 218 217 221 228 233 236 239 241 241 226 200 189 192 200 210 220 229 234 237 238 238 236 233 231 229 226 223 219 214 211 208 205 203 202 199 196 194 192 191 192 194 196 193 186 180 178 178 179 180 181 182 184 185 186 187 188 188 187 186 186 185 185 185 185 187 189 192 195 197 198 199 200 201 203 204 206 209 212 216 220 223 226 229
255 245 233 224 220 220 222 223 223 224 227 232 232 220 202 195 197 204 213 221 228 233 237 238 237 235 231 228 226 224 221 216 213 210 207 205 204 201 195 191 189 188 187 187 188 188 186 182 179 176 177 179 181 182 184 185 187 188 188 187 186 184 183 183 184 185 187 189 192 195 198 200 201 203 204 206 207 209 212 215 219 222 226 230 233 236
259 253 242 231 224 220 218 216 213 211 213 221 226 226 216 205 199 202 207 213 219 224 229 233 236 237 235 233 230 227 223 218 215 212 208 206 206 203 196 192 189 188 185 184 183 181 177 177 176 175 175 176 178 181 184 185 186 187 188 187 186 184 183 184 185 187 189 191 194 197 200 202 204 207 208 210 212 215 218 221 225 229 233 237 240 243
260 257 250 239 229 223 219 214 209 204 203 208 216 223 222 215 207 202 203 206 210 214 218 222 227 231 234 236 237 235 231 225 220 215 211 208 208 205 198 193 191 189 186 185 183 179 174 172 173 175 174 174 175 178 181 184 185 185 186 186 186 186 186 187 188 189 191 193 196 200 203 206 209 211 212 214 217 220 224 228 232 236 239 242 244 247
255 255 254 246 236 228 224 220 213 206 199 199 205 214 220 220 214 207 204 204 205 207 209 211 215 219 224 228 232 236 236 231 226 220 215 211 209 207 203 196 193 191 189 187 184 181 176 171 170 171 173 173 173 175 178 180 182 183 184 185 187 188 189 190 192 193 195 198 201 204 207 210 213 215 217 219 222 225 229 233 237 240 243 245 247 249
250 250 251 249 243 235 229 226 222 215 205 199 199 205 213 217 217 213 208 205 203 203 203 204 206 208 211 215 219 224 229 229 227 224 219 214 211 209 207 200 195 193 193 191 188 184 179 173 170 169 171 173 174 175 176 177 179 181 183 185 187 189 191 194 196 199 201 204 207 210 212 215 217 219 221 223 226 229 232 236 238 241 243 246 248 250
249 247 247 249 248 243 236 231 228 224 217 208 202 201 205 210 215 216 213 208 204 201 199 198 199 199 201 203 207 211 218 223 224 223 220 215 212 209 208 203 198 195 195 194 192 188 184 179 175 173 172 172 173 174 175 177 179 181 183 185 188 192 195 197 200 203 206 209 211 213 216 218 220 221 224 227 230 231 233 236 239 242 245 247 249 251
247 246 245 247 248 247 243 238 234 231 226 219 210 204 203 206 210 213 214 212 207 202 196 193 191 190 190 192 196 201 207 214 218 219 217 214 211 208 206 206 203 200 197 196 194 191 187 183 180 178 176 174 173 173 175 177 180 182 184 186 190 194 197 200 203 207 209 212 214 215 217 219 221 224 226 230 232 235 237 239 241 244 246 246 245 246
244 245 246 245 246 247 248 245 240 236 233 228 221 214 210 209 209 210 211 211 209 204 198 192 188 186 186 186 188 191 195 202 208 211 211 210 207 205 203 204 205 204 201 199 197 194 190 185 180 178 176 175 174 175 177 180 183 185 187 190 193 196 198 202 205 209 211 213 215 217 219 221 224 226 229 232 235 238 240 242 242 243 245 246 245 243
240 243 245 245 245 246 248 246 243 240 237 233 229 225 220 215 211 208 208 208 208 205 200 194 190 188 187 186 185 185 186 191 197 201 202 201 200 198 197 198 201 202 201 199 195 192 190 186 182 179 177 177 178 179 181 184 187 190 193 196 198 200 202 206 208 211 213 215 217 219 221 224 226 229 232 234 237 239 240 241 242 242 242 243 244 245
236 239 241 242 243 246 247 247 245 243 241 237 233 229 225 221 216 212 209 206 205 204 201 196 192 189 188 186 184 183 183 185 189 192 193 192 191 191 193 194 196 197 198 195 191 187 185 184 183 183 184 185 185 186 188 189 192 195 199 202 204 206 208 210 211 213 216 218 220 222 224 226 229 231 234 236 238 239 240 240 240 240 241 241 242 244
234 236 237 239 241 243 244 245 245 244 242 239 235 231 228 224 221 216 212 209 206 204 201 197 193 189 187 186 185 183 182 183 185 187 188 187 186 188 191 193 193 193 193 192 189 186 184 183 185 188 190 192 193 195 195 196 198 200 203 207 210 213 215 215 216 217 219 220 222 224 226 228 230 232 234 236 237 239 239 240 240 240 241 241 242 243
234 234 235 236 238 240 241 242 242 243 242 239 236 232 228 225 222 218 215 212 209 206 203 199 195 192 190 188 186 185 183 183 184 185 186 186 186 187 190 192 193 192 191 190 189 188 187 187 189 192 194 196 198 200 201 201 203 205 208 210 213 216 219 221 222 223 223 224 225 226 228 230 231 232 234 235 236 237 238 239 239 240 241 242 243 244
233 233 233 234 235 238 240 240 241 241 240 238 235 231 228 225 222 218 216 214 212 210 207 203 199 196 194 191 189 187 185 184 184 185 187 188 188 188 189 190 191 192 192 191 191 191 192 194 195 197 198 199 201 203 204 205 206 208 211 212 214 216 218 221 223 225 226 228 229 229 230 231 232 233 234 235 235 237 238 238 239 240 241 242 244 245
232 232 231 232 233 235 236 237 238 239 238 236 233 230 228 226 223 219 216 214 213 212 211 208 204 202 199 195 192 190 188 186 186 186 188 190 191 192 192 191 191 192 193 194 195 196 198 200 203 204 203 203 203 204 206 208 210 212 214 215 216 217 218 219 221 224 226 228 230 231 231 232 232 233 233 234 235 236 237 238 239 240 241 242 243 244
233 231 231 230 231 232 233 234 235 236 237 235 232 229 227 225 223 219 216 214 213 213 213 211 209 206 203 200 198 195 193 190 189 189 190 191 193 196 197 196 195 194 194 195 197 199 200 203 205 207 208 208 207 207 207 209 212 215 217 219 220 220 220 221 221 223 225 226 228 229 230 231 231 232 232 233 235 236 237 237 238 239 240 241 242 243
233 232 230 229 229 230 231 232 233 233 234 233 231 227 225 224 222 219 217 215 214 214 214 213 211 209 206 204 202 199 197 194 193 192 192 193 194 196 199 200 199 198 197 196 197 198 199 201 202 205 207 209 211 212 211 211 212 214 216 218 220 220 221 221 221 221 222 223 224 225 227 228 229 230 231 232 234 235 236 237 237 238 238 240 241 242
231 231 230 228 228 228 228 229 230 231 231 231 229 227 224 222 220 218 217 216 215 215 215 215 213 211 208 206 204 202 200 198 196 194 194 194 195 196 198 200 200 199 197 195 195 196 196 198 200 202 204 205 207 211 213 214 214 213 214 215 216 217 217 217 218 219 219 220 221 222 223 224 225 227 228 230 232 234 235 236 237 237 237 239 240 241
229 229 229 228 227 226 226 227 228 228 229 229 229 227 225 223 221 218 216 215 214 214 214 214 214 213 210 207 205 203 202 200 198 197 196 196 196 196 197 198 198 198 196 194 193 194 194 195 196 198 202 204 205 206 208 212 213 213 213 213 214 214 213 213 214 216 217 218 219 220 220 222 223 224 225 227 229 231 234 235 236 236 236 238 239 240